This demonstration page uses our WeatherBlox Daily Observations layout. Learn more.

Left ArrowRight Arrow

Hourly Observations for October 29, 2022

Temp ( °F °C ) Dew Point ( °F °C ) Humidity (%) Winds ( mph kmh ) Pressure ( in mb ) Visibility ( mi km ) Precip ( " mm )
12:53 am 00:53 Clear 47 8.3 31 -0.6 53 53 Calm 30.20 1023 10 16 0.00 0.00
1:53 am 01:53 Clear 45 7.2 32 0 60 60 Calm 30.20 1023 10 16 0.00 0.00
2:53 am 02:53 Clear 43 6.1 31 -0.6 62 62 NNE 3 6 30.20 1023 10 16 0.00 0.00
3:53 am 03:53 Clear 44 6.7 32 0 62 62 Calm 30.20 1023 10 16 0.00 0.00
4:53 am 04:53 Clear 43 6.1 31 -0.6 62 62 N 6 9 30.20 1023 10 16 0.00 0.00
5:53 am 05:53 Clear 42 5.6 30 -1.1 62 62 Calm 30.21 1023 10 16 0.00 0.00
6:53 am 06:53 Clear 41 5 31 -0.6 67 67 Calm 30.21 1023 10 16 0.00 0.00
7:53 am 07:53 Sunny 43 6.1 31 -0.6 62 62 Calm 30.22 1023 10 16 0.00 0.00
8:53 am 08:53 Sunny 47 8.3 34 1.1 60 60 Calm 30.23 1024 10 16 0.00 0.00
9:53 am 09:53 Sunny 54 12.2 33 0.6 45 45 Calm 30.23 1024 10 16 0.00 0.00
10:53 am 10:53 Sunny 62 16.7 34 1.1 35 35 VRB 5 7 30.22 1023 10 16 0.00 0.00
11:53 am 11:53 Sunny 70 21.1 33 0.6 25 25 VRB 5 7 30.21 1023 10 16 0.00 0.00
12:53 pm 12:53 Sunny 72 22.2 33 0.6 24 24 N 6 9 30.19 1022 10 16 0.00 0.00
1:53 pm 13:53 Sunny 76 24.4 29 -1.7 18 18 Calm 30.16 1021 10 16 0.00 0.00
2:53 pm 14:53 Sunny 79 26.1 27 -2.8 15 15 E 3 6 30.13 1020 10 16 0.00 0.00
3:53 pm 15:53 Sunny 80 26.7 27 -2.8 14 14 Calm 30.11 1020 10 16 0.00 0.00
4:53 pm 16:53 Sunny 79 26.1 30 -1.1 17 17 Calm 30.10 1019 10 16 0.00 0.00
5:53 pm 17:53 Sunny 74 23.3 30 -1.1 20 20 S 3 6 30.10 1019 10 16 0.00 0.00
6:53 pm 18:53 Clear 68 20 32 0 26 26 Calm 30.11 1020 10 16 0.00 0.00
7:53 pm 19:53 Clear 62 16.7 32 0 32 32 NW 3 6 30.13 1020 10 16 0.00 0.00
8:53 pm 20:53 Clear 61 16.1 31 -0.6 32 32 Calm 30.13 1020 10 16 0.00 0.00
9:53 pm 21:53 Clear 56 13.3 32 0 40 40 Calm 30.14 1021 10 16 0.00 0.00
10:53 pm 22:53 Clear 54 12.2 32 0 43 43 Calm 30.15 1021 10 16 0.00 0.00
11:53 pm 23:53 Clear 51 10.6 32 0 48 48 Calm 30.14 1021 10 16 0.00 0.00

Powered by AerisWeather